Temperature
15 14 14 13 12 12 11 11 11 10 10 9 9 9 8 8 8 7 7 7 6 6 6 5 5 4 4 3 3 2 2 1 0 0 0 -0 -1 -1 -1 -1 -2 -2 -2
15 14 14 13 12 12 11 11 10 10 9 9 9 8 8 8 7 7 7 6 6 6 5 5 4 4 3 3 2 2 1 1 -0 -1 -1 -1 -1 -2 -2 -2 -2 -3 -3
14 14 13 13 12 12 11 11 10 10 9 9 8 8 8 7 7 7 6 6 6 5 5 4 4 3 3 2 2 1 1 -0 -1 -1 -2 -2 -2 -2 -3 -3 -3 -3 -3
14 13 13 12 12 11 11 10 10 9 9 9 8 8 7 7 7 6 6 5 5 5 4 4 3 3 2 2 1 0 -0 -1 -1 -2 -2 -3 -3 -3 -3 -4 -4 -4 -4
13 13 13 12 11 11 11 10 10 9 9 8 8 7 7 6 6 6 5 5 5 4 4 3 2 2 1 1 0 -0 -1 -1 -2 -3 -3 -3 -4 -4 -4 -4 -5 -5 -5
13 13 12 11 11 11 10 10 9 9 8 8 7 7 7 6 6 5 5 4 4 3 3 2 2 1 1 0 -0 -1 -2 -2 -3 -3 -4 -4 -4 -4 -5 -5 -5 -6 -6
13 12 11 11 10 10 10 9 9 8 8 7 7 6 6 6 5 5 4 4 3 3 2 2 1 1 -0 -1 -1 -2 -2 -3 -3 -4 -4 -4 -5 -5 -5 -6 -6 -6 -6
12 12 11 10 10 9 9 9 8 8 7 7 6 6 6 5 4 4 3 3 2 2 1 1 0 -0 -1 -1 -2 -2 -3 -3 -4 -4 -5 -5 -5 -5 -6 -6 -6 -6 -6
12 11 10 10 9 9 8 8 7 7 6 6 6 5 5 4 4 3 3 2 1 1 0 -0 -1 -1 -2 -2 -3 -3 -3 -4 -4 -5 -5 -5 -5 -6 -6 -6 -7 -7 -7
11 10 10 9 9 8 8 7 7 6 6 5 5 5 4 4 3 2 2 1 0 -0 -0 -1 -2 -2 -2 -3 -4 -4 -4 -4 -5 -5 -5 -6 -6 -6 -6 -7 -7 -8 -8
10 10 9 8 8 7 7 6 6 5 5 4 4 4 3 3 2 1 1 -0 -1 -1 -1 -2 -2 -3 -3 -4 -4 -5 -5 -5 -5 -6 -6 -6 -6 -7 -7 -7 -8 -8 -8
10 9 8 8 7 6 6 5 5 4 4 4 3 3 2 2 1 0 -0 -1 -2 -2 -2 -3 -3 -4 -4 -4 -5 -5 -6 -6 -6 -6 -7 -7 -7 -7 -7 -8 -8 -8 -8
9 8 7 7 6 6 5 5 4 4 3 3 2 2 1 1 0 -1 -1 -2 -2 -3 -3 -4 -4 -5 -5 -5 -6 -6 -6 -7 -7 -7 -7 -8 -8 -8 -8 -8 -8 -8 -8
8 7 7 6 5 5 4 4 3 3 2 2 1 1 0 -0 -1 -1 -2 -2 -3 -3 -4 -4 -5 -5 -6 -6 -6 -7 -7 -7 -8 -8 -8 -8 -9 -9 -9 -9 -9 -9 -9
7 6 6 5 4 4 3 3 2 2 1 1 0 -1 -1 -1 -2 -2 -3 -3 -4 -4 -5 -5 -5 -6 -6 -6 -7 -7 -7 -8 -8 -9 -9 -9 -9 -9 -9 -10 -10 -10 -10
6 5 5 4 4 3 2 2 1 1 0 -0 -1 -1 -2 -2 -3 -3 -4 -4 -5 -5 -6 -6 -6 -7 -7 -7 -8 -8 -8 -9 -9 -9 -10 -10 -10 -10 -10 -10 -10 -10 -10
5 5 4 3 3 2 1 1 1 0 -0 -1 -2 -2 -3 -3 -3 -4 -5 -5 -6 -6 -7 -7 -7 -8 -8 -8 -9 -9 -9 -9 -10 -10 -10 -10 -10 -11 -11 -11 -11 -11 -11
4 4 3 2 2 1 1 -0 -1 -1 -1 -2 -2 -3 -3 -4 -4 -5 -5 -6 -6 -7 -7 -8 -8 -8 -9 -9 -9 -9 -10 -10 -10 -10 -11 -11 -11 -11 -11 -11 -11 -11 -11
3 2 2 1 1 0 -1 -1 -2 -2 -3 -3 -3 -3 -4 -5 -5 -6 -6 -7 -7 -7 -8 -8 -8 -9 -9 -9 -10 -10 -10 -11 -11 -11 -11 -11 -11 -11 -12 -12 -12 -12 -12
2 1 1 0 -0 -1 -1 -2 -2 -3 -4 -4 -4 -4 -5 -6 -6 -6 -7 -7 -8 -8 -8 -9 -9 -9 -9 -10 -10 -10 -11 -11 -11 -11 -11 -11 -12 -12 -12 -12 -12 -12 -12
1 0 -0 -1 -1 -2 -2 -3 -3 -4 -4 -5 -5 -5 -6 -7 -7 -7 -7 -8 -8 -8 -9 -9 -9 -10 -10 -10 -11 -11 -11 -11 -11 -12 -12 -12 -12 -12 -12 -12 -12 -12 -12
-0 -1 -1 -2 -2 -3 -3 -4 -4 -5 -5 -5 -6 -6 -7 -7 -7 -8 -8 -8 -8 -9 -9 -9 -10 -10 -10 -11 -11 -11 -11 -11 -12 -12 -12 -12 -12 -12 -12 -12 -12 -12 -12
-1 -2 -2 -3 -3 -3 -4 -4 -5 -5 -5 -6 -6 -7 -7 -7 -8 -8 -8 -8 -9 -9 -9 -10 -10 -10 -10 -11 -11 -11 -12 -12 -12 -12 -12 -12 -12 -12 -12 -12 -12 -12 -12
-2 -3 -3 -3 -4 -4 -5 -5 -5 -6 -6 -7 -7 -7 -7 -8 -8 -8 -9 -9 -9 -9 -10 -10 -10 -10 -11 -11 -11 -11 -12 -12 -12 -12 -12 -12 -12 -12 -12 -12 -12 -12 -12
-3 -3 -4 -4 -4 -5 -5 -6 -6 -7 -7 -7 -7 -8 -8 -8 -8 -9 -9 -9 -9 -10 -10 -10 -10 -10 -11 -11 -11 -11 -12 -12 -12 -12 -12 -12 -12 -12 -12 -12 -12 -12 -12
-4 -4 -4 -5 -5 -5 -6 -6 -7 -7 -7 -8 -8 -8 -8 -8 -9 -9 -9 -9 -10 -10 -10 -10 -10 -11 -11 -11 -11 -11 -11 -12 -12 -12 -12 -12 -12 -12 -12 -12 -12 -12 -12
Wind_Speed
8 8 8 8 8 8 8 9 8 7 8 8 9 9 9 9 8 8 8 8 9 8 7 8 9 7 6 6 5 5 6 6 9 7 5 5 5 8 11 13 15 15 16
7 7 7 7 7 8 8 8 7 8 7 8 8 8 8 8 8 9 9 9 9 10 9 8 9 7 8 6 6 7 7 7 7 10 6 5 7 7 8 9 11 13 13
6 6 6 6 7 8 8 7 7 7 6 6 7 8 8 8 8 9 9 9 9 10 9 9 9 8 8 6 7 7 7 7 7 8 8 5 6 6 7 7 9 9 13
6 6 7 7 7 7 6 6 6 6 6 6 7 7 7 7 7 7 7 8 8 8 8 9 8 9 9 8 7 8 7 7 7 8 8 7 6 6 5 7 8 6 8
6 6 7 6 5 5 5 5 5 5 6 6 6 5 5 5 6 7 7 7 8 7 7 8 8 9 11 9 7 7 7 6 6 7 8 7 6 5 6 5 8 8 8
6 6 5 5 5 5 4 4 4 4 4 4 5 5 5 5 7 9 7 6 7 7 7 6 7 8 11 14 15 13 10 8 7 7 7 8 8 7 7 7 8 9 8
5 5 5 5 5 4 4 4 4 4 3 4 4 4 5 6 7 8 9 5 6 6 6 6 6 6 9 7 11 14 13 16 15 10 9 9 9 8 8 9 9 10 10
5 5 5 5 4 4 4 4 3 3 3 3 4 4 4 5 6 7 7 4 4 5 6 6 6 7 7 7 6 7 8 9 11 9 9 10 9 9 9 9 10 9 8
5 5 5 5 5 4 4 4 3 3 3 3 3 3 3 4 5 6 4 2 3 4 5 5 6 7 11 13 8 8 8 8 12 16 17 15 17 17 14 7 6 7 9
6 5 5 5 5 5 4 3 2 2 2 2 2 2 3 3 5 5 4 2 3 4 4 5 9 9 12 13 8 7 9 8 7 8 9 11 10 11 14 7 5 7 7
4 4 4 4 4 4 3 2 2 2 2 1 1 1 2 3 4 5 5 3 3 4 4 4 5 11 13 14 11 7 10 10 5 6 6 6 6 5 6 6 5 6 7
5 5 4 4 3 3 3 2 2 2 2 1 1 2 2 2 3 5 7 7 6 4 4 4 6 11 12 13 10 11 14 11 3 3 4 5 5 6 6 6 7 7 8
5 5 4 3 3 3 3 3 2 2 2 1 1 2 2 2 3 7 8 9 9 6 5 9 11 12 11 8 10 13 10 4 3 4 6 6 5 6 5 5 6 6 6
6 4 4 4 3 2 2 2 2 2 2 2 2 3 3 3 3 3 3 4 6 6 5 7 10 10 8 8 8 7 4 4 5 5 6 5 4 5 5 5 4 4 4
5 4 4 3 3 2 1 2 2 3 4 3 3 3 3 4 6 8 6 4 3 5 4 2 2 3 3 4 4 4 4 4 5 4 5 5 6 6 5 4 4 3 4
5 4 3 3 2 2 2 1 1 2 4 4 5 5 5 7 10 10 10 10 10 10 7 3 4 4 5 5 5 5 4 5 5 5 5 6 6 6 6 5 4 4 5
6 5 3 3 3 2 2 1 1 2 3 4 5 6 7 8 9 9 10 9 10 9 4 3 4 5 5 5 5 5 5 5 5 5 6 6 6 6 6 6 5 5 5
5 4 4 3 3 2 2 2 2 2 3 3 4 6 8 8 9 9 9 8 5 5 3 4 5 5 5 5 5 5 5 5 5 5 5 5 5 5 6 6 5 5 5
4 3 3 3 2 2 2 1 1 2 2 3 3 4 6 7 8 8 8 3 4 5 5 5 5 5 5 6 6 6 5 6 6 5 5 5 5 5 5 5 5 8 6
3 3 3 3 2 2 1 1 2 2 2 3 3 4 4 4 4 5 4 4 4 5 5 5 6 6 6 6 6 5 6 6 6 5 5 5 5 5 6 6 5 5 5
3 3 2 2 2 2 2 2 2 2 3 4 4 6 8 5 4 5 5 5 5 5 5 5 6 6 6 5 5 6 7 6 6 6 6 5 5 5 5 5 5 5 5
3 3 2 2 2 2 2 2 2 3 3 4 5 6 9 5 4 5 5 6 5 5 5 6 6 6 6 6 6 6 7 7 7 6 6 6 6 6 6 5 5 5 5
3 3 2 1 1 2 2 2 2 3 4 5 5 5 5 5 5 6 6 6 6 6 6 6 7 7 6 7 7 7 7 8 7 7 7 6 6 6 6 6 6 6 5
3 3 2 2 1 2 2 3 3 4 4 5 5 6 6 6 6 7 7 7 6 6 6 6 7 9 10 9 8 8 9 10 9 8 9 8 7 7 6 6 6 6 6
3 2 2 2 2 2 3 3 4 4 5 5 6 6 6 6 7 7 7 7 7 7 8 8 8 8 10 11 11 11 14 17 16 11 8 8 8 8 7 7 6 6 6
2 2 2 2 2 3 3 4 4 5 5 6 6 6 6 7 7 7 7 7 7 8 8 8 9 11 12 12 13 15 18 18 18 17 10 7 8 8 7 7 7 6 6
Wind_Direction
203 203 204 207 206 205 208 211 210 208 204 205 207 208 209 210 206 206 214 208 212 220 215 214 223 216 216 217 214 216 221 219 253 269 248 253 253 262 278 280 282 281 283
200 197 201 203 200 205 212 213 206 206 205 207 206 208 211 212 207 207 215 214 215 221 221 218 227 221 220 220 217 222 228 224 237 269 272 259 252 255 261 268 280 280 278
190 190 195 199 201 208 214 211 204 204 205 204 203 210 214 213 211 213 214 217 218 222 220 220 226 220 227 227 224 229 233 238 234 255 272 260 258 259 266 270 270 273 278
184 187 199 205 207 211 210 206 204 202 203 205 207 212 214 213 213 214 214 218 221 225 225 225 226 222 227 228 231 232 234 239 242 252 266 267 262 258 256 270 280 266 273
182 192 205 204 202 201 202 203 202 202 206 205 207 215 214 211 214 211 213 218 221 228 230 230 230 232 237 239 242 235 229 238 245 255 266 272 270 267 263 261 277 283 274
184 199 198 191 190 195 200 196 194 201 203 200 207 212 218 225 229 225 221 218 220 225 234 237 237 241 251 257 261 262 254 250 250 253 263 266 269 263 265 267 276 286 288
185 190 185 182 188 193 187 183 194 200 196 205 214 213 226 238 241 242 236 225 220 226 230 236 247 248 259 250 262 269 268 268 269 268 265 265 270 265 267 271 269 271 274
181 186 183 178 184 181 177 190 199 193 197 209 217 221 231 250 254 256 252 237 226 230 231 233 241 249 250 255 248 253 254 259 265 268 260 263 263 263 257 266 272 274 270
186 191 188 179 178 178 188 198 195 186 200 210 214 216 230 260 265 264 261 228 233 243 243 240 245 247 265 274 268 261 264 262 270 273 273 277 281 287 289 286 283 286 287
194 189 179 172 174 183 190 188 177 178 197 196 215 220 228 254 270 270 270 226 246 256 257 252 263 271 277 280 270 263 269 270 268 276 279 285 288 290 293 284 271 277 283
168 158 158 165 170 172 164 160 158 159 159 179 227 257 248 262 275 277 279 259 243 254 260 258 259 279 283 284 284 272 277 286 273 265 267 272 277 274 273 269 254 252 266
148 149 154 156 153 148 147 148 147 149 154 187 256 297 284 276 283 282 285 286 284 262 263 259 264 282 286 287 289 287 292 299 289 278 277 278 276 273 270 267 265 257 253
143 149 150 143 139 147 154 157 150 154 170 219 234 270 289 287 289 294 293 295 294 289 271 278 285 289 293 293 292 296 301 298 281 278 281 282 272 269 272 275 275 273 272
148 150 149 145 141 136 146 160 169 186 198 225 244 264 282 289 282 275 271 284 291 293 287 286 292 298 300 296 297 301 296 276 278 273 278 280 280 279 277 272 276 281 286
146 149 148 148 151 149 153 190 201 212 216 227 232 236 256 273 275 287 291 278 272 270 289 284 283 285 282 281 281 279 277 283 288 278 279 287 289 287 285 278 267 271 273
150 154 157 157 157 158 149 9 325 276 280 279 273 272 272 279 290 297 300 301 303 303 307 294 286 281 277 278 280 282 277 275 273 274 276 280 285 286 288 284 273 265 272
158 163 162 164 167 174 180 186 286 326 316 304 296 297 296 297 298 300 302 302 301 306 303 287 283 282 280 280 278 277 277 277 274 274 276 278 281 283 283 282 282 276 275
147 158 161 166 172 181 194 211 226 255 297 306 306 305 304 303 303 303 304 310 305 304 281 276 276 276 275 274 274 275 277 280 276 274 273 275 277 281 281 279 278 274 277
143 151 155 160 167 177 189 206 230 248 265 285 298 305 309 310 308 303 308 297 280 280 278 274 272 272 272 271 272 273 272 275 274 272 272 272 272 273 273 275 276 282 280
143 156 155 154 160 174 190 210 237 250 264 273 279 285 299 302 293 293 290 274 271 273 272 272 273 272 271 270 270 270 272 272 271 268 268 270 269 265 266 269 270 272 270
145 154 151 148 172 193 207 223 235 247 262 273 277 283 289 286 277 278 281 278 272 272 272 272 273 275 272 269 267 267 267 269 266 264 265 265 264 266 263 262 264 264 266
148 153 162 174 188 204 222 222 230 248 260 270 279 287 295 295 282 279 279 278 274 268 266 267 270 267 263 262 262 265 267 268 266 263 262 261 260 261 263 261 261 263 263
146 153 164 186 207 240 262 244 248 255 263 268 274 279 283 279 277 276 276 276 274 273 271 267 269 270 266 263 259 258 261 264 262 257 258 260 258 258 259 259 257 257 257
153 164 179 199 221 233 245 254 258 263 267 270 272 274 274 274 276 278 278 278 276 275 273 270 268 267 268 270 270 266 262 263 261 255 248 250 252 254 255 255 253 250 251
155 173 195 213 227 239 251 260 265 268 271 273 274 275 276 277 278 278 277 276 276 277 275 274 272 271 270 269 270 271 272 273 271 263 247 241 242 243 247 249 248 249 248
162 185 210 222 233 243 252 260 266 268 271 274 274 274 275 277 277 278 278 277 277 277 278 277 271 270 272 274 273 275 277 276 275 272 260 242 236 237 237 241 242 242 243
Height
1459 1461 1462 1463 1465 1466 1467 1469 1470 1472 1473 1474 1475 1476 1477 1477 1478 1478 1478 1478 1478 1477 1477 1476 1476 1476 1475 1474 1473 1471 1469 1467 1461 1457 1458 1456 1454 1452 1450 1447 1444 1441 1438
1455 1456 1457 1458 1459 1460 1462 1463 1465 1466 1467 1468 1469 1469 1470 1471 1471 1471 1471 1471 1471 1470 1470 1469 1469 1468 1467 1466 1465 1463 1462 1459 1456 1451 1449 1448 1446 1445 1442 1439 1436 1433 1430
1451 1452 1453 1454 1455 1455 1457 1458 1459 1460 1461 1462 1462 1463 1464 1464 1464 1464 1464 1464 1463 1463 1463 1462 1461 1461 1459 1459 1457 1456 1454 1452 1449 1445 1441 1440 1438 1437 1433 1430 1428 1424 1421
1446 1447 1448 1449 1450 1451 1452 1453 1454 1455 1455 1456 1456 1457 1457 1457 1457 1458 1457 1457 1456 1456 1455 1455 1454 1453 1452 1451 1450 1448 1447 1444 1442 1438 1434 1432 1430 1428 1425 1422 1418 1416 1413
1442 1443 1444 1445 1446 1447 1447 1448 1449 1449 1450 1450 1451 1451 1451 1451 1451 1451 1450 1450 1449 1448 1448 1448 1447 1446 1445 1444 1442 1440 1439 1436 1434 1431 1428 1425 1422 1421 1418 1414 1410 1407 1403
1438 1439 1440 1440 1441 1442 1443 1443 1444 1444 1445 1445 1445 1445 1445 1445 1445 1444 1444 1443 1442 1441 1440 1440 1439 1438 1437 1436 1435 1433 1432 1430 1427 1424 1421 1418 1415 1414 1411 1408 1404 1400 1395
1433 1434 1435 1436 1436 1437 1438 1438 1439 1439 1439 1439 1439 1439 1439 1439 1439 1438 1437 1436 1435 1434 1433 1432 1431 1430 1429 1428 1426 1425 1424 1422 1420 1418 1414 1411 1409 1406 1404 1400 1397 1393 1389
1429 1430 1430 1431 1432 1432 1433 1433 1434 1434 1434 1434 1433 1433 1433 1433 1432 1431 1430 1429 1428 1427 1426 1425 1424 1423 1422 1420 1418 1416 1415 1414 1412 1409 1407 1404 1402 1399 1397 1394 1390 1386 1382
1424 1425 1426 1426 1427 1428 1428 1428 1428 1428 1428 1428 1428 1428 1427 1427 1426 1425 1424 1422 1421 1420 1419 1418 1417 1415 1415 1413 1411 1409 1407 1405 1404 1402 1400 1397 1395 1393 1391 1387 1383 1379 1374
1420 1420 1421 1422 1422 1423 1423 1423 1423 1423 1423 1423 1422 1422 1421 1421 1420 1419 1417 1416 1414 1413 1412 1412 1411 1409 1408 1406 1404 1402 1399 1397 1396 1393 1392 1390 1387 1385 1383 1380 1377 1373 1369
1415 1416 1417 1417 1418 1418 1418 1419 1418 1418 1418 1417 1417 1416 1416 1415 1414 1413 1411 1410 1408 1407 1405 1404 1403 1402 1401 1399 1398 1396 1393 1391 1388 1386 1383 1381 1379 1377 1375 1373 1370 1367 1364
1410 1411 1412 1413 1413 1414 1414 1414 1414 1413 1412 1412 1411 1410 1410 1409 1408 1406 1406 1405 1403 1401 1399 1398 1396 1395 1394 1392 1391 1389 1387 1384 1381 1379 1376 1374 1371 1369 1367 1365 1363 1360 1358
1406 1407 1407 1408 1409 1409 1409 1409 1409 1408 1407 1406 1405 1404 1403 1403 1402 1401 1400 1399 1397 1396 1394 1392 1390 1389 1387 1385 1383 1382 1380 1377 1375 1372 1369 1367 1365 1362 1360 1358 1356 1354 1352
1401 1402 1403 1403 1404 1404 1404 1404 1404 1403 1402 1401 1400 1399 1398 1397 1396 1395 1394 1392 1391 1389 1387 1385 1384 1382 1380 1378 1376 1375 1373 1371 1368 1365 1362 1360 1358 1356 1354 1352 1350 1348 1345
1396 1397 1398 1399 1399 1399 1399 1400 1399 1398 1398 1397 1395 1394 1393 1391 1391 1390 1389 1387 1385 1383 1381 1379 1377 1375 1373 1371 1369 1368 1366 1364 1362 1360 1357 1355 1352 1350 1348 1347 1345 1343 1341
1391 1392 1393 1394 1394 1394 1394 1394 1394 1394 1393 1392 1391 1390 1388 1387 1385 1384 1383 1381 1379 1378 1376 1373 1371 1369 1367 1365 1363 1361 1359 1357 1356 1354 1351 1349 1347 1345 1343 1342 1340 1338 1336
1387 1387 1388 1389 1389 1389 1388 1388 1387 1387 1387 1386 1385 1384 1383 1381 1379 1378 1376 1375 1373 1372 1370 1367 1365 1363 1361 1359 1357 1355 1353 1352 1350 1348 1346 1344 1342 1340 1339 1337 1335 1334 1332
1382 1383 1384 1384 1384 1384 1384 1383 1382 1381 1380 1379 1379 1378 1377 1375 1374 1372 1371 1369 1367 1366 1364 1362 1360 1358 1356 1353 1352 1349 1347 1346 1344 1342 1340 1339 1337 1335 1334 1332 1331 1330 1328
1378 1378 1379 1379 1379 1379 1379 1379 1378 1377 1375 1374 1373 1372 1371 1369 1368 1367 1365 1364 1361 1360 1358 1356 1354 1352 1350 1348 1346 1344 1342 1340 1338 1337 1335 1333 1332 1331 1329 1328 1327 1326 1325
1374 1374 1375 1375 1375 1375 1374 1374 1373 1372 1371 1369 1368 1367 1365 1364 1362 1361 1360 1358 1356 1354 1352 1350 1348 1346 1344 1342 1340 1338 1336 1334 1332 1331 1329 1328 1327 1326 1324 1323 1323 1322 1321
1369 1370 1370 1371 1370 1370 1370 1369 1368 1367 1366 1365 1363 1362 1361 1359 1357 1355 1354 1352 1350 1348 1346 1344 1341 1339 1337 1335 1333 1331 1330 1328 1326 1325 1324 1323 1322 1321 1320 1319 1318 1317 1317
1365 1366 1366 1366 1366 1366 1365 1364 1364 1363 1362 1360 1358 1357 1356 1354 1352 1350 1348 1346 1344 1342 1340 1337 1335 1333 1331 1329 1327 1325 1323 1322 1321 1319 1318 1317 1317 1316 1315 1315 1314 1313 1313
1362 1362 1362 1362 1362 1361 1361 1360 1359 1358 1357 1355 1353 1352 1350 1348 1346 1344 1342 1340 1338 1335 1333 1331 1328 1326 1324 1323 1321 1319 1317 1316 1315 1314 1313 1312 1312 1311 1311 1310 1310 1309 1309
1358 1358 1358 1358 1357 1357 1356 1355 1354 1353 1352 1350 1348 1346 1344 1342 1340 1338 1336 1334 1331 1329 1326 1324 1322 1320 1318 1316 1314 1313 1311 1310 1309 1308 1308 1307 1307 1307 1306 1306 1306 1305 1305
1354 1354 1354 1353 1353 1352 1351 1350 1349 1348 1346 1345 1343 1341 1339 1337 1334 1332 1330 1327 1325 1322 1320 1317 1315 1313 1311 1309 1307 1306 1305 1304 1303 1303 1302 1302 1302 1302 1302 1301 1301 1302 1302
1350 1350 1349 1349 1348 1347 1346 1345 1344 1342 1341 1339 1337 1335 1333 1330 1328 1326 1323 1321 1318 1315 1313 1311 1308 1306 1304 1302 1301 1299 1298 1297 1297 1297 1297 1297 1297 1297 1297 1297 1297 1297 1298